This is the latest recevied weather packets stored in our database for station/object 9M8ZAL-13. If no packets are shown the sender has not sent any weather packets the latest 10 day(s).
| Time | Temp. | Humidity | Pressure | Rain* | Wind** | Luminosity | Snow |
|---|---|---|---|---|---|---|---|
| 1777626204 | 31.11° C | - | 1004.8 hPa | - | - | 1002 W/m² | - |
| 1777625604 | 31.67° C | - | 1004.9 hPa | - | - | 1002 W/m² | - |
| 1777625004 | 31.67° C | - | 1004.8 hPa | - | - | 1003 W/m² | - |
| 1777624404 | 32.22° C | - | 1004.7 hPa | - | - | 1003 W/m² | - |
| 1777623804 | 32.22° C | - | 1004.8 hPa | - | - | 1003 W/m² | - |
| 1777623204 | 32.22° C | - | 1004.7 hPa | - | - | 1003 W/m² | - |
| 1777622604 | 32.78° C | - | 1004.8 hPa | - | - | 1003 W/m² | - |
| 1777622004 | 33.33° C | - | 1004.9 hPa | - | - | 1005 W/m² | - |
| 1777621404 | 33.33° C | - | 1005 hPa | - | - | 1005 W/m² | - |
| 1777620804 | 32.78° C | - | 1005.2 hPa | - | - | 1005 W/m² | - |
| 1777620204 | 33.33° C | - | 1005.2 hPa | - | - | 1005 W/m² | - |
| 1777619604 | 33.33° C | - | 1005.5 hPa | - | - | 1005 W/m² | - |
| 1777619004 | 33.33° C | - | 1005.7 hPa | - | - | 1006 W/m² | - |
| 1777618404 | 32.78° C | - | 1005.8 hPa | - | - | 1005 W/m² | - |
| 1777617805 | 33.33° C | - | 1005.9 hPa | - | - | 1006 W/m² | - |
| 1777617203 | 32.78° C | - | 1006.1 hPa | - | - | 1005 W/m² | - |
| 1777616604 | 33.33° C | - | 1006.3 hPa | - | - | 1005 W/m² | - |
| 1777616004 | 33.89° C | - | 1006.5 hPa | - | - | 1006 W/m² | - |
| 1777615403 | 33.33° C | - | 1006.6 hPa | - | - | 1008 W/m² | - |
| 1777614803 | 33.33° C | - | 1006.9 hPa | - | - | 1005 W/m² | - |
| 1777614203 | 33.33° C | - | 1007 hPa | - | - | 1007 W/m² | - |
| 1777613603 | 33.33° C | - | 1007.4 hPa | - | - | 1007 W/m² | - |
| 1777613003 | 32.78° C | - | 1007.7 hPa | - | - | 1007 W/m² | - |
| 1777612403 | 33.33° C | - | 1007.8 hPa | - | - | 1005 W/m² | - |
| 1777611803 | 32.78° C | - | 1007.9 hPa | - | - | 1006 W/m² | - |
* Rain since midnight (hover to see other rain measurements)
** Current wind speed in m/s (hover to see current wind gust speed)